Hourly Weather Barrancas

Today, 18 April, Sunday

Time Temperature Precipitation Wind Pressure Humidity
00:00 +28°C° 0 mm 2 mps 738 mmHg 62%
01:00 +27°C° 0 mm 1 mps 737 mmHg 63%
02:00 +27°C° 0 mm 1 mps 737 mmHg 63%
03:00 +27°C° 0 mm 2 mps 737 mmHg 63%
04:00 +26°C° 0 mm 2 mps 737 mmHg 63%
05:00 +27°C° 0 mm 2 mps 738 mmHg 63%
06:00 +27°C° 0 mm 2 mps 739 mmHg 63%
07:00 +28°C° 0 mm 2 mps 740 mmHg 63%
08:00 +30°C° 0 mm 3 mps 740 mmHg 57%
09:00 +33°C° 0 mm 3 mps 740 mmHg 51%
10:00 +34°C° 0 mm 3 mps 740 mmHg 45%
11:00 +35°C° 0 mm 3 mps 739 mmHg 41%
12:00 +36°C° 0 mm 3 mps 738 mmHg 38%
13:00 +37°C° 0 mm 3 mps 737 mmHg 34%
14:00 +37°C° 0 mm 2 mps 737 mmHg 33%
15:00 +37°C° 0 mm 2 mps 736 mmHg 32%
16:00 +37°C° 0 mm 2 mps 736 mmHg 31%
17:00 +35°C° 0 mm 2 mps 736 mmHg 37%
18:00 +32°C° 0 mm 2 mps 736 mmHg 43%
19:00 +30°C° 0 mm 2 mps 737 mmHg 49%
20:00 +29°C° 0 mm 2 mps 738 mmHg 50%
21:00 +29°C° 0 mm 2 mps 738 mmHg 52%
22:00 +28°C° 0 mm 1 mps 739 mmHg 53%
23:00 +28°C° 0 mm 1 mps 738 mmHg 54%

Tomorrow, 19 April, Monday

Time Temperature Precipitation Wind Pressure Humidity
00:00 +27°C° 0 mm 2 mps 738 mmHg 55%
01:00 +27°C° 0 mm 2 mps 737 mmHg 57%
02:00 +27°C° 0 mm 2 mps 738 mmHg 57%
03:00 +27°C° 0 mm 2 mps 738 mmHg 57%
04:00 +27°C° 0 mm 2 mps 738 mmHg 56%
05:00 +27°C° 0 mm 1 mps 739 mmHg 57%
06:00 +27°C° 0 mm 1 mps 739 mmHg 57%
07:00 +28°C° 0 mm 1 mps 740 mmHg 58%
08:00 +30°C° 0 mm 2 mps 740 mmHg 52%
09:00 +31°C° 0 mm 2 mps 741 mmHg 47%
10:00 +34°C° 0 mm 3 mps 741 mmHg 42%
11:00 +35°C° 0 mm 3 mps 740 mmHg 39%
12:00 +36°C° 0 mm 2 mps 739 mmHg 36%
13:00 +37°C° 0 mm 2 mps 738 mmHg 33%
14:00 +37°C° 0 mm 3 mps 737 mmHg 31%
15:00 +37°C° 0 mm 3 mps 737 mmHg 30%
16:00 +37°C° 0 mm 3 mps 736 mmHg 29%
17:00 +34°C° 0 mm 3 mps 737 mmHg 36%
18:00 +31°C° 0 mm 3 mps 737 mmHg 42%
19:00 +29°C° 0 mm 2 mps 738 mmHg 48%
20:00 +28°C° 0 mm 2 mps 738 mmHg 50%
21:00 +28°C° 0 mm 2 mps 739 mmHg 52%
22:00 +27°C° 0 mm 2 mps 739 mmHg 54%
23:00 +27°C° 0 mm 2 mps 738 mmHg 53%

Day after tomorrow, 20 April, Tuesday

Time Temperature Precipitation Wind Pressure Humidity
00:00 +26°C° 0 mm 1 mps 738 mmHg 53%
01:00 +26°C° 0 mm 1 mps 738 mmHg 53%
02:00 +26°C° 0 mm 1 mps 738 mmHg 53%
03:00 +26°C° 0 mm 1 mps 738 mmHg 53%
04:00 +26°C° 0 mm 1 mps 738 mmHg 53%
05:00 +26°C° 0 mm 1 mps 739 mmHg 55%
06:00 +27°C° 0 mm 2 mps 740 mmHg 56%
07:00 +27°C° 0 mm 2 mps 740 mmHg 57%
08:00 +29°C° 0 mm 2 mps 741 mmHg 52%
09:00 +31°C° 0 mm 2 mps 741 mmHg 47%
10:00 +34°C° 0 mm 2 mps 741 mmHg 42%
11:00 +35°C° 0 mm 2 mps 740 mmHg 39%
12:00 +36°C° 0 mm 2 mps 739 mmHg 37%
13:00 +36°C° 0 mm 2 mps 738 mmHg 34%
14:00 +36°C° 0 mm 2 mps 738 mmHg 33%
15:00 +36°C° 0 mm 2 mps 737 mmHg 33%
16:00 +35°C° 0 mm 1 mps 737 mmHg 33%
17:00 +33°C° 0 mm 1 mps 737 mmHg 37%
18:00 +32°C° 0 mm 1 mps 737 mmHg 41%
19:00 +30°C° 0 mm 1 mps 737 mmHg 45%
20:00 +29°C° 0 mm 1 mps 738 mmHg 47%
21:00 +29°C° 0 mm 1 mps 738 mmHg 50%
22:00 +28°C° 0 mm 1 mps 738 mmHg 52%
23:00 +27°C° 0 mm 1 mps 738 mmHg 53%

21 April, Wednesday

Time Temperature Precipitation Wind Pressure Humidity
00:00 +27°C° 0 mm 1 mps 738 mmHg 54%
01:00 +27°C° 0 mm 1 mps 737 mmHg 56%
02:00 +26°C° 0 mm 1 mps 737 mmHg 57%
03:00 +26°C° 0 mm 1 mps 738 mmHg 59%
04:00 +26°C° 0 mm 1 mps 738 mmHg 61%
05:00 +26°C° 0 mm 1 mps 738 mmHg 59%
06:00 +27°C° 0 mm 1 mps 739 mmHg 57%
07:00 +28°C° 0 mm 1 mps 740 mmHg 56%
08:00 +30°C° 0 mm 2 mps 740 mmHg 50%
09:00 +32°C° 0 mm 2 mps 740 mmHg 45%
10:00 +35°C° 0 mm 3 mps 740 mmHg 39%
11:00 +35°C° 0 mm 2 mps 739 mmHg 37%
12:00 +35°C° 0 mm 1 mps 739 mmHg 35%
13:00 +35°C° 0 mm 1 mps 738 mmHg 33%
14:00 +36°C° 0 mm 1 mps 737 mmHg 32%
15:00 +36°C° 0 mm 1 mps 736 mmHg 31%
16:00 +36°C° 0 mm 1 mps 736 mmHg 30%
17:00 +34°C° 0 mm 1 mps 736 mmHg 37%
18:00 +32°C° 0 mm 2 mps 736 mmHg 43%
19:00 +30°C° 0 mm 2 mps 736 mmHg 49%
20:00 +29°C° 0 mm 2 mps 737 mmHg 49%
21:00 +29°C° 0 mm 2 mps 737 mmHg 50%
22:00 +29°C° 0 mm 1 mps 737 mmHg 50%
23:00 +29°C° 0 mm 1 mps 737 mmHg 49%

22 April, Thursday

Time Temperature Precipitation Wind Pressure Humidity
00:00 +29°C° 0 mm 2 mps 737 mmHg 49%
01:00 +28°C° 0 mm 2 mps 736 mmHg 49%
02:00 +28°C° 0 mm 1 mps 737 mmHg 50%
03:00 +28°C° 0 mm 1 mps 737 mmHg 51%
04:00 +28°C° 0 mm 1 mps 737 mmHg 52%
05:00 +28°C° 0 mm 1 mps 738 mmHg 54%
06:00 +28°C° 0 mm 2 mps 739 mmHg 55%
07:00 +28°C° 0 mm 2 mps 739 mmHg 57%
08:00 +30°C° 0 mm 2 mps 740 mmHg 52%
09:00 +31°C° 0 mm 2 mps 740 mmHg 47%
10:00 +34°C° 0 mm 2 mps 740 mmHg 42%
11:00 +35°C° 0 mm 2 mps 739 mmHg 39%
12:00 +36°C° 0 mm 2 mps 738 mmHg 37%
13:00 +35°C° 0 mm 1 mps 737 mmHg 35%
14:00 +35°C° 0 mm 1 mps 737 mmHg 34%
15:00 +35°C° 0 mm 1 mps 736 mmHg 34%
16:00 +35°C° 0 mm 1 mps 735 mmHg 33%
17:00 +34°C° 0 mm 1 mps 735 mmHg 39%
18:00 +32°C° 0 mm 2 mps 736 mmHg 44%
19:00 +30°C° 0 mm 2 mps 736 mmHg 50%
20:00 +29°C° 0 mm 2 mps 736 mmHg 50%
21:00 +29°C° 0 mm 2 mps 737 mmHg 51%
22:00 +29°C° 0 mm 2 mps 737 mmHg 51%
23:00 +29°C° 0 mm 1 mps 737 mmHg 50%

23 April, Friday

Time Temperature Precipitation Wind Pressure Humidity
00:00 +29°C° 0 mm 1 mps 736 mmHg 49%
01:00 +29°C° 0 mm 1 mps 736 mmHg 48%
02:00 +28°C° 0 mm 1 mps 736 mmHg 50%
03:00 +28°C° 0 mm 2 mps 737 mmHg 52%
04:00 +28°C° 0 mm 2 mps 737 mmHg 53%
05:00 +28°C° 0.1 mm 2 mps 738 mmHg 56%
06:00 +28°C° 0.1 mm 2 mps 738 mmHg 59%
07:00 +28°C° 0.1 mm 2 mps 739 mmHg 61%
08:00 +29°C° 0.1 mm 2 mps 739 mmHg 58%
09:00 +30°C° 0.1 mm 2 mps 740 mmHg 54%
10:00 +31°C° 0.1 mm 2 mps 740 mmHg 51%
11:00 +32°C° 0 mm 2 mps 739 mmHg 48%
12:00 +33°C° 0 mm 1 mps 738 mmHg 45%
13:00 +34°C° 0 mm 1 mps 737 mmHg 42%
14:00 +34°C° 0 mm 1 mps 737 mmHg 44%
15:00 +33°C° 0 mm 1 mps 736 mmHg 47%
16:00 +32°C° 0 mm 1 mps 735 mmHg 49%
17:00 +31°C° 0 mm 1 mps 736 mmHg 51%
18:00 +31°C° 0 mm 2 mps 736 mmHg 53%
19:00 +30°C° 0 mm 2 mps 736 mmHg 55%
20:00 +30°C° 0 mm 2 mps 737 mmHg 55%
21:00 +30°C° 0 mm 2 mps 737 mmHg 55%
22:00 +29°C° 0 mm 1 mps 737 mmHg 56%
23:00 +29°C° 0 mm 1 mps 737 mmHg 55%
Show more